{"data":{"norad_id":69634,"intl_designator":"2026-128J","name":"ZHUQUE-2E DEB","alt_names":[],"object_type":"DEBRIS","status":"UNKNOWN","operator":null,"country":"PRC","launch_date":"2026-06-09","launch_site_code":"JSC","launch_vehicle":null,"mission":null,"orbit_class":"UNKNOWN","rcs_meters":null,"size_class":null,"mass_kg":null,"dimensions":null,"purposes":[],"wikipedia_slug":null,"has_3d_model":false,"image_url":null,"decayed_at":null,"tle_current":{"epoch":"2026-07-07T11:42:56.672352Z","epoch_age_seconds":6511160,"freshness":"OLD","line1":"1 69634U 26128J   26188.48815593  .07030403  11686-4  39749-2 0  9992","line2":"2 69634  54.5137 204.7279 0028747  55.3810 304.9951 16.17421222  4289","mean_motion":16.17421222,"eccentricity":0.0028747,"inclination_deg":54.5137,"raan_deg":204.7279,"arg_perigee_deg":55.381,"mean_anomaly_deg":304.9951,"bstar":0.0039749,"rev_number":428,"period_min":89.030611223178,"perigee_km":207.57627846686,"apogee_km":245.54933954877,"semimajor_km":6604.6998090078,"source":"CELESTRAK","updated_at":"2026-07-09T09:01:40.760355Z"}}}